TimeCDT,TemperatureF,Dew PointF,Humidity,Sea Level PressureIn,VisibilityMPH,Wind Direction,Wind SpeedMPH,Gust SpeedMPH,PrecipitationIn,Events,Conditions,WindDirDegrees,DateUTC
12:54 AM,73.0,61.0,66,29.92,10.0,SSE,12.7,-,N/A,,Clear,150,2014-08-15 05:54:00
1:54 AM,72.0,61.0,68,29.90,10.0,SSE,13.8,-,N/A,,Clear,150,2014-08-15 06:54:00
2:54 AM,70.0,61.0,73,29.89,10.0,SSE,10.4,-,N/A,,Clear,160,2014-08-15 07:54:00
3:54 AM,70.0,61.0,73,29.89,10.0,South,12.7,-,N/A,,Clear,170,2014-08-15 08:54:00
4:54 AM,70.0,61.0,73,29.88,10.0,SSE,10.4,-,N/A,,Scattered Clouds,160,2014-08-15 09:54:00
5:54 AM,70.0,62.1,76,29.88,10.0,SSE,11.5,-,N/A,,Clear,160,2014-08-15 10:54:00
6:54 AM,70.0,63.0,78,29.88,10.0,SSE,9.2,-,N/A,,Clear,160,2014-08-15 11:54:00
7:54 AM,71.1,63.0,75,29.87,9.0,South,10.4,-,N/A,,Partly Cloudy,170,2014-08-15 12:54:00
8:54 AM,73.0,64.0,73,29.88,9.0,SE,8.1,-,N/A,,Clear,140,2014-08-15 13:54:00
9:54 AM,73.9,64.9,73,29.88,9.0,ESE,6.9,-,N/A,,Mostly Cloudy,120,2014-08-15 14:54:00
10:54 AM,72.0,66.9,84,29.92,6.0,East,8.1,-,0.01,Rain,Light Rain,90,2014-08-15 15:54:00
11:54 AM,71.1,66.9,87,29.92,8.0,SE,10.4,-,0.02,Rain,Light Rain,130,2014-08-15 16:54:00
12:54 PM,71.1,68.0,90,29.90,6.0,SE,11.5,-,0.18,Rain,Light Rain,130,2014-08-15 17:54:00
1:54 PM,73.0,69.1,87,29.89,8.0,SSE,9.2,-,0.02,,Overcast,150,2014-08-15 18:54:00
2:09 PM,73.0,69.1,87,29.92,7.0,SSE,6.9,-,N/A,,Overcast,160,2014-08-15 19:09:00
2:37 PM,73.0,69.1,87,29.91,8.0,SE,6.9,-,N/A,,Overcast,130,2014-08-15 19:37:00
2:54 PM,73.9,69.1,85,29.88,8.0,ESE,6.9,-,0.00,,Overcast,120,2014-08-15 19:54:00
3:54 PM,73.9,69.1,85,29.86,8.0,East,5.8,-,N/A,,Overcast,100,2014-08-15 20:54:00
4:23 PM,73.9,69.1,85,29.88,8.0,SE,9.2,-,N/A,,Overcast,140,2014-08-15 21:23:00
4:54 PM,75.0,69.1,82,29.85,8.0,SE,9.2,-,N/A,,Overcast,130,2014-08-15 21:54:00
5:09 PM,75.0,69.1,82,29.88,8.0,SE,8.1,-,N/A,,Overcast,130,2014-08-15 22:09:00
5:49 PM,73.4,69.8,88,29.88,8.0,SE,10.4,-,N/A,,Overcast,130,2014-08-15 22:49:00
5:54 PM,73.9,68.0,82,29.85,8.0,SE,12.7,-,N/A,,Overcast,140,2014-08-15 22:54:00
6:07 PM,73.9,68.0,82,29.88,8.0,SE,12.7,-,N/A,,Overcast,140,2014-08-15 23:07:00
6:27 PM,73.9,68.0,82,29.87,8.0,SE,9.2,-,N/A,,Overcast,140,2014-08-15 23:27:00
6:34 PM,73.9,68.0,82,29.87,8.0,SE,9.2,-,N/A,,Overcast,130,2014-08-15 23:34:00
6:54 PM,73.9,68.0,82,29.84,8.0,ESE,6.9,-,N/A,,Overcast,120,2014-08-15 23:54:00
7:20 PM,73.9,68.0,82,29.86,8.0,SE,10.4,-,N/A,,Overcast,140,2014-08-16 00:20:00
7:54 PM,73.0,68.0,84,29.83,8.0,ESE,6.9,-,N/A,,Overcast,120,2014-08-16 00:54:00
8:54 PM,72.0,68.0,87,29.83,9.0,SE,5.8,-,N/A,,Overcast,130,2014-08-16 01:54:00
9:54 PM,71.1,68.0,90,29.85,8.0,East,6.9,-,N/A,,Mostly Cloudy,100,2014-08-16 02:54:00
10:45 PM,71.1,68.0,90,29.87,7.0,ENE,4.6,-,N/A,,Overcast,70,2014-08-16 03:45:00
10:54 PM,71.1,68.0,90,29.84,7.0,East,4.6,-,N/A,,Overcast,80,2014-08-16 03:54:00